Weather History for Marion, IN

Change the Weather History Date:

Monday, February 11, 2013

  Actual Average (KMIE) Record (KMIE)
Temperature  
Mean Temperature 40 °F 28 °F  
Max Temperature 62 °F 37 °F 71 °F (1999)
Min Temperature 30 °F 21 °F -13 °F (2014)
Degree Days  
Heating Degree Days 26 36  
Month to date heating degree days 411  
Since 1 July heating degree days 3804  
Cooling Degree Days 0 0  
Month to date cooling degree days 0  
Year to date cooling degree days 0  
Moisture  
Dew Point 30 °F    
Average Humidity 76    
Maximum Humidity 93    
Minimum Humidity 68    
Precipitation  
Precipitation 0.00 in 0.09 in 1.56 in (2009)
Month to date precipitation 0.90  
Year to date precipitation 3.13  
Sea Level Pressure  
Sea Level Pressure 29.84 in    
Wind  
Wind Speed 21 mph (WSW)    
Max Wind Speed 32 mph    
Max Gust Speed 40 mph    
Visibility 9 miles    
Events      
T = Trace of Precipitation, MM = Missing Value Source: NWS Daily Summary

Daily Weather History Graph

Daily Weather History Graph

Search for Another Location

Airport:

Trip Planner

Search our weather history database for the weather conditions in past years. The results will help you decide how hot, cold, wet, or windy it might be!

Date:

Astronomy

Feb. 11, 2013 Rise Set
Actual Time 7:41 AM EST 6:13 PM EST
Civil Twilight 7:12 AM EST 6:41 PM EST
Nautical Twilight 6:40 AM EST 7:13 PM EST
Astronomical Twilight 6:09 AM EST 7:45 PM EST
Moon 8:04 AM EST (2/11) 8:10 PM EST (2/11)
Length of Visible Light 11h 28m
Length of Day
10h 32m
Waxing Crescent, 3% of the Moon is Illuminated
Feb 11
Waxing Crescent
Feb 17
First Quarter
Feb 25
Full
Mar 4
Last Quarter
Mar 11
New

Hourly Weather History & Observations

Time (EST) Temp. Windchill Dew Point Humidity Pressure Visibility Wind Dir Wind Speed Gust Speed Precip Events Conditions
12:15 AM 47.8 °F - 45.1 °F 90% 29.68 in 10.0 mi SSW 18.4 mph 24.2 mph N/A   Overcast
12:35 AM 47.8 °F - 45.3 °F 91% 29.67 in 5.0 mi SSW 18.4 mph 23.0 mph N/A   Overcast
12:55 AM 48.2 °F - 45.5 °F 90% 29.68 in 7.0 mi SSW 18.4 mph 24.2 mph N/A   Overcast
1:15 AM 47.8 °F - 45.3 °F 91% 29.67 in 10.0 mi SSW 17.3 mph - N/A   Overcast
1:35 AM 47.1 °F - 44.8 °F 92% 29.67 in 10.0 mi SSW 15.0 mph 25.3 mph N/A   Mostly Cloudy
1:55 AM 46.6 °F - 44.6 °F 93% 29.67 in 4.0 mi SSW 17.3 mph - N/A   Scattered Clouds
2:15 AM 46.6 °F - 44.6 °F 93% 29.66 in 7.0 mi SSW 17.3 mph 20.7 mph N/A   Clear
2:35 AM 46.6 °F - 44.4 °F 92% 29.66 in 7.0 mi SSW 17.3 mph - N/A   Scattered Clouds
2:55 AM 46.4 °F 40.1 °F 44.1 °F 92% 29.67 in 10.0 mi SSW 15.0 mph 21.9 mph N/A   Scattered Clouds
3:15 AM 46.0 °F 39.6 °F 43.7 °F 92% 29.66 in 10.0 mi SSW 15.0 mph - N/A   Scattered Clouds
3:35 AM 45.9 °F 38.8 °F 42.8 °F 89% 29.66 in 7.0 mi SW 17.3 mph 21.9 mph N/A   Clear
3:55 AM 46.8 °F - 41.2 °F 81% 29.66 in 7.0 mi SW 13.8 mph - N/A   Scattered Clouds
4:15 AM 46.9 °F - 41.0 °F 80% 29.66 in 10.0 mi SW 21.9 mph 29.9 mph N/A   Mostly Cloudy
4:35 AM 47.3 °F - 38.3 °F 71% 29.66 in 10.0 mi WSW 17.3 mph 27.6 mph N/A   Mostly Cloudy
4:55 AM 45.9 °F 37.0 °F 36.5 °F 70% 29.69 in 10.0 mi West 26.5 mph 33.4 mph N/A   Mostly Cloudy
5:15 AM 43.5 °F 34.0 °F 33.4 °F 68% 29.70 in 10.0 mi West 25.3 mph 33.4 mph N/A   Mostly Cloudy
5:35 AM 41.7 °F 32.1 °F 32.7 °F 70% 29.71 in 10.0 mi West 23.0 mph 29.9 mph N/A   Mostly Cloudy
5:55 AM 40.6 °F 30.0 °F 32.0 °F 71% 29.72 in 10.0 mi West 26.5 mph 40.3 mph N/A   Overcast
6:15 AM 39.7 °F 29.2 °F 31.1 °F 71% 29.73 in 10.0 mi West 24.2 mph 38.0 mph N/A   Overcast
6:55 AM 38.5 °F 27.3 °F 29.5 °F 70% 29.74 in 10.0 mi WSW 25.3 mph 39.1 mph N/A   Overcast
7:15 AM 38.7 °F 28.6 °F 29.3 °F 69% 29.75 in 10.0 mi WSW 20.7 mph 31.1 mph N/A   Overcast
7:35 AM 38.3 °F 26.4 °F 29.5 °F 71% 29.76 in 10.0 mi West 28.8 mph 35.7 mph N/A   Overcast
7:55 AM 36.5 °F 23.7 °F 27.7 °F 70% 29.78 in 10.0 mi West 29.9 mph 39.1 mph N/A   Overcast
8:15 AM 35.6 °F 23.2 °F 26.4 °F 69% 29.78 in 10.0 mi WSW 26.5 mph 32.2 mph N/A   Overcast
8:35 AM 35.6 °F 24.5 °F 26.6 °F 70% 29.79 in 10.0 mi WSW 20.7 mph 28.8 mph N/A   Overcast
8:55 AM 35.6 °F 24.2 °F 27.0 °F 71% 29.79 in 10.0 mi WSW 21.9 mph 25.3 mph N/A   Overcast
9:15 AM 35.4 °F 23.2 °F 27.3 °F 72% 29.80 in 10.0 mi West 25.3 mph 35.7 mph N/A   Overcast
9:35 AM 35.1 °F 22.5 °F 26.1 °F 70% 29.81 in 10.0 mi West 26.5 mph 34.5 mph N/A   Overcast
9:55 AM 34.7 °F 22.8 °F 26.4 °F 72% 29.82 in 7.0 mi West 23.0 mph 34.5 mph N/A   Overcast
10:15 AM 34.7 °F 22.2 °F 26.6 °F 72% 29.83 in 10.0 mi West 25.3 mph 33.4 mph N/A   Overcast
10:35 AM 34.5 °F 22.3 °F 26.4 °F 72% 29.83 in 10.0 mi West 24.2 mph 36.8 mph N/A   Overcast
10:55 AM 34.2 °F 21.0 °F 25.3 °F 70% 29.84 in 10.0 mi West 27.6 mph 40.3 mph N/A   Overcast
11:15 AM 33.8 °F 20.8 °F 24.6 °F 69% 29.85 in 7.0 mi West 26.5 mph 33.4 mph N/A   Overcast
11:35 AM 33.8 °F 22.5 °F 25.3 °F 71% 29.85 in 7.0 mi WSW 19.6 mph - N/A   Overcast
11:55 AM 33.6 °F 22.2 °F 26.6 °F 75% 29.86 in 10.0 mi West 19.6 mph 24.2 mph N/A   Overcast
12:15 PM 33.4 °F 20.6 °F 26.6 °F 76% 29.87 in 7.0 mi West 25.3 mph 31.1 mph N/A   Overcast
12:35 PM 33.4 °F 20.1 °F 25.7 °F 73% 29.87 in 10.0 mi WSW 27.6 mph 35.7 mph N/A   Overcast
12:55 PM 33.8 °F 19.6 °F 25.2 °F 71% 29.87 in 10.0 mi West 32.2 mph 38.0 mph N/A   Overcast
1:15 PM 33.8 °F 20.3 °F 25.3 °F 71% 29.87 in 7.0 mi WSW 28.8 mph 36.8 mph N/A   Overcast
1:35 PM 34.0 °F 21.5 °F 25.5 °F 71% 29.88 in 10.0 mi WSW 24.2 mph 32.2 mph N/A   Overcast
1:55 PM 33.8 °F 21.3 °F 25.3 °F 71% 29.88 in 10.0 mi WSW 24.2 mph 31.1 mph N/A   Overcast
2:15 PM 34.0 °F 21.0 °F 25.5 °F 71% 29.88 in 10.0 mi West 26.5 mph 34.5 mph N/A   Overcast
2:35 PM 34.0 °F 20.8 °F 25.5 °F 71% 29.89 in 10.0 mi WSW 27.6 mph 34.5 mph N/A   Overcast
2:55 PM 34.0 °F 20.3 °F 25.3 °F 71% 29.89 in 10.0 mi West 29.9 mph 35.7 mph N/A   Overcast
3:15 PM 34.0 °F 21.5 °F 25.5 °F 71% 29.90 in 10.0 mi WSW 24.2 mph 33.4 mph N/A   Overcast
3:35 PM 33.8 °F 20.8 °F 25.5 °F 72% 29.91 in 10.0 mi West 26.5 mph 29.9 mph N/A   Overcast
3:55 PM 33.8 °F 22.5 °F 25.3 °F 71% 29.91 in 7.0 mi West 19.6 mph 29.9 mph N/A   Overcast
4:15 PM 33.8 °F 22.2 °F 25.7 °F 72% 29.92 in 10.0 mi WSW 20.7 mph 28.8 mph N/A   Overcast
4:35 PM 33.8 °F 21.9 °F 26.2 °F 74% 29.92 in 10.0 mi WSW 21.9 mph 27.6 mph N/A   Overcast
4:55 PM 33.8 °F 22.5 °F 26.1 °F 73% 29.93 in 10.0 mi WSW 19.6 mph - N/A   Overcast
5:55 PM 33.8 °F 23.2 °F 26.6 °F 75% 29.94 in 10.0 mi West 17.3 mph - N/A   Overcast
6:15 PM 33.8 °F 23.5 °F 26.8 °F 75% 29.95 in 10.0 mi West 16.1 mph - N/A   Overcast
6:35 PM 33.6 °F 25.0 °F 27.3 °F 78% 29.96 in 10.0 mi West 11.5 mph - N/A   Overcast
6:55 PM 33.4 °F 24.3 °F 27.3 °F 78% 29.96 in 10.0 mi WNW 12.7 mph - N/A   Overcast
7:15 PM 33.4 °F 23.5 °F 27.3 °F 78% 29.97 in 10.0 mi West 15.0 mph 19.6 mph N/A   Overcast
7:35 PM 33.3 °F 22.1 °F 27.0 °F 78% 29.97 in 10.0 mi West 18.4 mph 25.3 mph N/A   Overcast
7:55 PM 32.9 °F 20.7 °F 26.4 °F 77% 29.98 in 10.0 mi West 21.9 mph 32.2 mph N/A   Overcast
8:15 PM 32.5 °F 20.5 °F 24.8 °F 73% 29.99 in 10.0 mi West 20.7 mph 29.9 mph N/A   Overcast
8:35 PM 32.2 °F 20.0 °F 24.8 °F 74% 29.99 in 10.0 mi West 20.7 mph 27.6 mph N/A   Overcast
8:55 PM 32.0 °F 20.8 °F 25.0 °F 75% 29.99 in 10.0 mi West 17.3 mph - N/A   Overcast
9:15 PM 32.0 °F 20.8 °F 25.3 °F 76% 29.99 in 10.0 mi West 17.3 mph 23.0 mph N/A   Overcast
9:35 PM 32.0 °F 20.1 °F 25.3 °F 76% 29.99 in 10.0 mi West 19.6 mph 25.3 mph N/A   Overcast
9:55 PM 32.0 °F 20.1 °F 25.5 °F 77% 30.00 in 10.0 mi West 19.6 mph 24.2 mph N/A   Overcast
10:15 PM 32.0 °F 20.1 °F 25.5 °F 77% 30.00 in 10.0 mi West 19.6 mph 26.5 mph N/A   Mostly Cloudy
10:35 PM 32.0 °F 19.5 °F 25.2 °F 76% 30.00 in 10.0 mi West 21.9 mph 27.6 mph N/A   Clear
10:55 PM 31.8 °F 19.9 °F 25.0 °F 76% 30.00 in 10.0 mi West 19.6 mph 26.5 mph N/A   Mostly Cloudy
11:15 PM 31.5 °F 19.8 °F 24.4 °F 75% 30.01 in 10.0 mi WNW 18.4 mph 21.9 mph N/A   Scattered Clouds
11:35 PM 31.1 °F 20.1 °F 24.1 °F 75% 30.01 in 10.0 mi West 16.1 mph - N/A   Clear
11:55 PM 30.9 °F 19.8 °F 24.6 °F 77% 30.01 in 10.0 mi West 16.1 mph - N/A   Scattered Clouds